Regional Weather Roundup
Issued by NWS Grand Forks, ND

Home | Current Version | Previous Version | Text Only | Print | Product List | Glossary On
Versions: 1 2 3 4 5 6 7 8 9 10 11 12 13 14 15 16 17 18 19 20 21 22 23 24 25 26 27 28 29 30 31 32 33 34 35 36 37 38 39 40 41 42 43 44 45 46 47 48 49 50
000
ASUS43 KFGF 272210
RWRFGF
PRAIRIE TO PINES  WEATHER ROUNDUP
NATIONAL WEATHER SERVICE EASTERN NORTH DAKOTA/GRAND FORKS ND
400 PM CST THU NOV 27 2014

 **SATELLITE DATA USED TO AUGMENT SKY COVER AT AUTOMATED STATIONS**
 *****  WEATHER ACROSS EASTERN NORTH DAKOTA  *****

CITY           SKY/WX    TMP DP  RH WIND       PRES   REMARKS
GRAND FORKS    CLOUDY     4  -5  66 S13       30.31F WCI -13
GRAND FRKS AFB MOCLDY     5  -3  69 S13       30.29F WCI -12
GRAND FRKS NWS   N/A      3 N/A N/A S13         N/A  WCI -14
DEVILS LAKE    CLOUDY     7  -8  51 SE14      30.15S WCI -10
FARGO          CLOUDY     8  -2  63 S13       30.32F WCI  -8
WAHPETON ARPT  CLOUDY     7  -4  61 SE14      30.31F WCI -10
$$

 ***** WEATHER ACROSS CENTRAL AND WESTERN NORTH DAKOTA  *****

CITY           SKY/WX    TMP DP  RH WIND       PRES   REMARKS
BISMARCK       SNOW      12   9  87 SE21      30.05F VSB 1/2 WCI  -7
MINOT          LGT SNOW  13   8  81 E15       30.00F WCI  -3
JAMESTOWN      CLOUDY     5  -3  69 S13       30.17F WCI -12
MINOT AFB      LGT SNOW  12  10  92 SE17      30.00F FOG     WCI  -5
GARRISON         N/A     13  11  92 SE18      29.97F WCI  -4
WILLISTON      CLOUDY    20  15  81 SE10      29.86F WCI   9
DICKINSON      CLOUDY    24  20  84 S16       29.83F WCI  11
HETTINGER      CLOUDY    23  18  81 S13       29.88F WCI  11
$$

 *****  OTHER AIRPORT OBSERVATIONS IN OUR AREA  *****

CITY           SKY/WX    TMP DP  RH WIND       PRES   REMARKS
WALHALLA         N/A      9   0  66 SE13      30.24F WCI  -7
GRAFTON AIRPOR FAIR       7   0  72 S15       30.29F WCI -11
VALLEY CITY AR CLOUDY     5  -2  72 SE10      30.22F WCI -10
CANDO          CLOUDY     7   0  72 S12       30.15F WCI  -9
CAVALIER APRT  FAIR       9   0  66 S10       30.26F WCI  -6
GWINNER        MOCLDY    10   0  61 SE12      30.26F WCI  -4
ROLLA          CLOUDY     7   1  78 S13       30.10F WCI  -9
 ***** THE ABOVE OBSERVATIONS ARE NON NWS ARE NOT QUALITY
       CONTROLLED AND MAY MIS-REPORT RAIN FOR SNOW...
$$

  *****  WEATHER ACROSS NORTHERN MINNESOTA  *****

CITY           SKY/WX    TMP DP  RH WIND       PRES   REMARKS
FLAG ISLAND    MOCLDY     1  -6  71 S6        30.30F WCI -10
WARROAD        MOCLDY     3  -6  66 S5        30.31F WCI  -6
ROSEAU         PTCLDY     5  -4  66 S7        30.30F WCI  -7
HALLOCK        MOCLDY     5  -2  72 S15       30.30F WCI -13
THF RVR FALLS  MOCLDY     1  -4  78 S9        30.30F WCI -14
BAUDETTE       PTCLDY     3  -6  66 CALM      30.31S
WASKISH        PTCLDY     1  -6  71 CALM      30.33S
CROOKSTON      MOCLDY     5  -2  72 S12       30.33F WCI -11
STEPHEN NDAWN    N/A      3  -6  66 S12         N/A  WCI -13
GREENBUSH NDAW   N/A      3  -4  72 S9          N/A  WCI -11
$$
  *****  WEATHER ACROSS CENTRAL AND WEST MINNESOTA  *****

CITY           SKY/WX    TMP DP  RH WIND       PRES   REMARKS
FOSSTON        MOCLDY     3  -6  66 CALM      30.29F
BEMIDJI        MOCLDY     4  -6  63 E3        30.29F
PARK RAPIDS    PTCLDY     8  -5  55 S8        30.28F WCI  -4
ELBOW LAKE     CLOUDY     4  -4  69 S12       30.32F WCI -12
WADENA         PTCLDY     7  -4  61 S8        30.30F WCI  -6
DETROIT LAKES  CLEAR      9  -2  61 S12       30.28F WCI  -6
MOORHEAD       FAIR       9   1  72 S10       30.33F WCI  -6
FERGUS FALLS   PTCLDY     5  -6  61 S12       30.35F WCI -11
MORRIS MN      PTCLDY     3  -4  72 SE13      30.33F WCI -14
STAPLES        FAIR       7  -8  51 S7        30.32F WCI  -5
$$
  *****  WEATHER ELSEWHERE ACROSS MINNESOTA  *****

CITY           SKY/WX    TMP DP  RH WIND       PRES   REMARKS
DULUTH         CLEAR      6  -8  52 W3        30.31F
INTRNTL FALLS  CLEAR      2  -7  66 CALM      30.33S
ELY            CLEAR      1  -9  60 CALM      30.31F
CLOQUET        CLEAR      7  -8  51 SW3       30.33F
WHEATON        PTCLDY     3  -4  72 SE15      30.34F WCI -15
BRAINERD       PTCLDY     6  -6  57 S9        30.35F WCI  -8
HIBBING        CLEAR      5  -8  55 CALM      30.31F
ALEXANDRIA     PTCLDY     6  -4  63 S9        30.32F WCI  -8
SAINT CLOUD    CLEAR      7  -4  60 CALM      30.39F
MINNEAPOLIS    PTCLDY     8  -4  58 S5        30.42F WCI   0
$$

  *****  WEATHER ACROSS SOUTH DAKOTA  *****

CITY           SKY/WX    TMP DP  RH WIND       PRES   REMARKS
SIOUX FALLS    CLOUDY    11   1  64 SE13      30.27F WCI  -4
BROOKINGS      NOT AVBL
WATERTOWN      FLURRIES  10   1  67 SE12      30.20F WCI  -5
HURON          CLOUDY    14   4  64 SE15G22   30.20F WCI  -1
SISSETON         N/A      5  -3  69 S13       30.28F WCI -12
ABERDEEN       CLOUDY    13   4  67 SE10      30.20F WCI   0
MITCHELL       CLOUDY    15   7  70 SE16      30.23F WCI  -1
PIERRE         CLOUDY    24  15  68 SE14      30.04F WCI  12
MOBRIDGE       CLOUDY    17  11  77 SE18      30.02F WCI   1
RAPID CITY     MOSUNNY   36  28  73 SE9       29.89F
$$

  *****  SOME WEATHER IN NEARBY STATES *****

CITY           SKY/WX    TMP DP  RH WIND       PRES   REMARKS
GLASGOW MT     PTCLDY    34  29  82 E10       29.74S
GREAT FALLS MT SUNNY     57  34  41 SW28G38   29.74R
CHEYENNE WY    PTSUNNY   56  22  26 NW25G45   30.11R
SCOTTSBLUFF NE MOSUNNY   43  33  68 E3        29.99F
OMAHA NE       MOCLDY    22   8  55 SE14      30.36F WCI   9
DES MOINES IA  CLOUDY    14  -1  51 CALM      30.45S
DAVENPORT IA   CLEAR     15   4  61 W13       30.45R WCI   1
CHICAGO IL     CLOUDY    23  14  68 NW8       30.37R WCI  14
EAU CLAIRE WI  CLEAR      8  -5  55 W7        30.42S WCI  -3
LA CROSSE WI   CLEAR     13  -1  54 N7        30.45S WCI   3
$$

  *****  SOME NATIONAL WEATHER *****

CITY           SKY/WX    TMP DP  RH WIND       PRES   REMARKS
LA GUARDIA NY  CLOUDY    38  31  76 NW14      30.01R
RALEIGH NC     PTCLDY    44  34  67 NW5       30.12R
ATLANTA GA     MOCLDY    42  26  53 NW15G24   30.32R
NEW ORLEANS LA MOSUNNY   60  33  36 N10       30.39R
OKLAHOMA CITY  MOSUNNY   52  19  27 S10       30.37F
ALBUQUERQUE NM MOSUNNY   59  22  24 CALM      30.34F
SALT LAKE CITY CLOUDY    57  26  30 SE6       30.20F
LOS ANGELES CA PTSUNNY   76  42  29 W10       30.01F
BOISE ID       CLOUDY    56  44  64 E5        30.07F
SEATTLE WA     PTSUNNY   56  51  84 S17G32    29.80F
$$

*** WEATHER ACROSS MANITOBA...SASKATCHEWAN AND ONTARIO ***
                ***ONTARIO***

CITY           SKY/WX    TMP DP  RH WIND       PRES   REMARKS
GERALDTON      PTCLDY    -4 -13  65 NW3       30.28S
THUNDER BAY    PTCLDY     5  -8  56 NW6       30.38S WCI  -6
SIOUX LOOKOUT  PTCLDY    -2  -9  71 S6        30.28F WCI -14
TORONTO        MOCLDY    32  23  69 N12       30.07R WCI  23
BIG TROUT LK   CLEAR     -6  -9  84 SW8       30.15F WCI -21
PICKLE LAKE    PTCLDY    -6 -11  77 SW8       30.22F WCI -21
DRYDEN         PTCLDY    -2  -9  71 SW7       30.28S WCI -16
KENORA         MOCLDY    -2  -8  78 S7        30.28F WCI -16
$$
                *** MANITOBA***

CITY           SKY/WX    TMP DP  RH WIND       PRES   REMARKS
BRANDON        CLOUDY    10   3  72 E8        30.14F WCI  -1
DAUPHIN        FLURRIES   9   1  72 SE6       30.14F WCI  -1
ISLAND LAKE    FLURRIES N/A N/A N/A SW6         N/A
PILOT MOUND      N/A      7   1  78 S13         N/A  WCI  -9
THE PAS        CLOUDY     1  -4  78 N5        30.19R WCI  -8
THOMPSON       PTCLDY    -2  -9  71 W3        30.15F
WINNIPEG       MOCLDY     5  -2  72 S17       30.28F WCI -14
LYNN LAKE      CLEAR     -8 -15  71 NW9       30.16S WCI -25
CHURCHILL      CRYSTALS  -9 -18  64 NW22G29   30.06S WCI -35
GILLAM         PTCLDY    -6 -11  77 W9        30.11F WCI -22
$$
                ***SASKATCHEWAN***

CITY           SKY/WX    TMP DP  RH WIND       PRES   REMARKS
ESTEVAN        LGT SNOW  10   9  92 E17       29.95F WCI  -7
KINDERSLEY     CLOUDY    16  12  86 NE24      29.83S WCI  -3
LLOYDMINSTER   LGT SNOW   3   0  85 NE30      30.00S DRFTSNOWWCI -21
PRINCE ALBERT  FLURRIES  10   3  72 NE13      30.11F WCI  -5
REGINA         LGT SNOW  16  12  86 E14       29.94F DRFTSNOWWCI   1
YORKTON        MOCLDY     5   1  85 E7        30.06F WCI  -7
N. BATTLEFORD  LGT SNOW  12   9  85 E12       30.04R WCI  -2
LA RONGE       MOCLDY    -2  -8  78 N6        30.23F WCI -14
SASKATOON      LGT SNOW  14  10  85 E17G24    30.03R DRFTSNOWWCI  -3
SWIFT CURRENT  CLOUDY    21  18  86 SE17G26   29.75F WCI   7
$$
NOTE: THESE ARE AUTOMATED STATIONS WITH LIMITED QUALITY CONTROL
      "FAIR" INDICATES FEW OR NO CLOUDS BELOW 12,000 FEET WITH NO
      SIGNIFICANT WEATHER AND/OR OBSTRUCTIONS TO VISIBILITY.
      SKY/WX - SKY CONDITION AND SIGNIFICANT WEATHER.
      TMP - AIR TEMPERATURE.    DP   - DEWPOINT TEMPERATURE.
      RH  - RELATIVE HUMIDITY.  PRES - PRESSURE.
      HX  - HEAT INDEX.         WCI  - WIND CHILL INDEX.
$


USA.gov is the U.S. government's official web portal to all federal, state and local government web resources and services.